| time (UTC) | temp F | wind direction | speed MPH | gust MPH | rain 1hr in | rain 24hr in | rain mn in | humidity % | barometer mb |
| 20260505094045 | 98 | 23 | 1.0 | 2.0 | 0.00 | 0.41 | 0.31 | 10 | 1019.5 |
| 20260505093042 | 98 | 0.0 | 0.0 | 0.00 | 0.41 | 0.31 | 10 | 1019.4 | |
| 20260505092107 | 98 | 0.0 | 0.0 | 0.00 | 0.41 | 0.31 | 10 | 1019.4 | |
| 20260505091017 | 98 | 0.0 | 0.0 | 0.00 | 0.41 | 0.31 | 10 | 1019.4 | |
| 20260505090043 | 98 | 180 | 0.0 | 1.0 | 0.00 | 0.41 | 0.31 | 10 | 1019.2 |
| 20260505085041 | 98 | 0.0 | 0.0 | 0.00 | 0.41 | 0.31 | 10 | 1019.2 | |
| 20260505084047 | 98 | 0.0 | 0.0 | 0.00 | 0.41 | 0.31 | 10 | 1019.1 | |
| 20260505083015 | 98 | 180 | 2.0 | 2.0 | 0.00 | 0.41 | 0.31 | 10 | 1019.2 |
| 20260505082023 | 98 | 0.0 | 0.0 | 0.00 | 0.41 | 0.31 | 10 | 1019.1 | |
| 20260505081023 | 98 | 0.0 | 0.0 | 0.00 | 0.41 | 0.31 | 10 | 1019.2 | |
| 20260505080023 | 98 | 0.0 | 0.0 | 0.00 | 0.41 | 0.31 | 10 | 1018.9 | |
| 20260505075030 | 98 | 270 | 1.0 | 2.0 | 0.00 | 0.41 | 0.31 | 10 | 1018.9 |
| 20260505074045 | 98 | 229 | 1.0 | 2.0 | 0.00 | 0.41 | 0.31 | 10 | 1018.8 |
| 20260505073032 | 98 | 234 | 2.0 | 2.0 | 0.00 | 0.41 | 0.31 | 10 | 1018.8 |
| 20260505072053 | 98 | 307 | 1.0 | 2.0 | 0.00 | 0.41 | 0.31 | 10 | 1018.7 |
| 20260505071034 | 98 | 270 | 1.0 | 1.0 | 0.00 | 0.41 | 0.31 | 10 | 1018.7 |
| 20260505070033 | 98 | 270 | 2.0 | 3.0 | 0.00 | 0.41 | 0.31 | 10 | 1018.7 |
| 20260505065036 | 98 | 197 | 2.0 | 3.0 | 0.00 | 0.41 | 0.31 | 10 | 1018.7 |
| 20260505064037 | 98 | 270 | 1.0 | 2.0 | 0.00 | 0.41 | 0.31 | 10 | 1018.6 |
| 20260505063044 | 98 | 225 | 1.0 | 2.0 | 0.00 | 0.41 | 0.31 | 10 | 1018.7 |
| 20260505062103 | 98 | 270 | 1.0 | 2.0 | 0.00 | 0.41 | 0.31 | 10 | 1018.6 |
| 20260505061043 | 98 | 248 | 1.0 | 2.0 | 0.00 | 0.41 | 0.31 | 10 | 1018.4 |
| 20260505060039 | 98 | 246 | 2.0 | 2.0 | 0.00 | 0.41 | 0.31 | 10 | 1018.7 |
| 20260505055102 | 98 | 148 | 3.0 | 4.0 | 0.00 | 0.41 | 0.31 | 10 | 1018.5 |
| 20260505054045 | 98 | 79 | 1.0 | 3.0 | 0.00 | 0.41 | 0.31 | 10 | 1018.2 |
| 20260505053045 | 98 | 219 | 5.0 | 7.0 | 0.00 | 0.41 | 0.31 | 10 | 1018.3 |
| 20260505052019 | 98 | 223 | 3.0 | 5.0 | 0.00 | 0.41 | 0.31 | 10 | 1018.2 |
| 20260505051024 | 98 | 180 | 3.0 | 4.0 | 0.02 | 0.41 | 0.31 | 10 | 1018.2 |
| 20260505041029 | 98 | 225 | 1.0 | 2.0 | 0.12 | 0.39 | 0.29 | 10 | 1018.9 |
| 20260505040027 | 98 | 270 | 0.0 | 1.0 | 0.14 | 0.39 | 0.29 | 10 | 1019.0 |
| 20260505035029 | 98 | 191 | 1.0 | 2.0 | 0.14 | 0.37 | 0.26 | 10 | 1019.3 |
| 20260505034030 | 98 | 241 | 2.0 | 3.0 | 0.14 | 0.33 | 0.22 | 10 | 1019.4 |
| 20260505033027 | 98 | 259 | 1.0 | 2.0 | 0.14 | 0.31 | 0.20 | 10 | 1019.4 |
| 20260505032028 | 98 | 230 | 2.0 | 2.0 | 0.12 | 0.29 | 0.18 | 10 | 1019.6 |
| 20260505031048 | 58 | 225 | 1.0 | 1.0 | 0.12 | 0.26 | 0.16 | 10 | 1019.8 |
| 20260505030037 | 53 | 296 | 2.0 | 2.0 | 0.12 | 0.24 | 0.14 | 10 | 1019.8 |
| 20260505025052 | 38 | 260 | 2.0 | 3.0 | 0.10 | 0.22 | 0.12 | 10 | 1020.0 |
| 20260505024030 | 98 | 0 | 1.0 | 2.0 | 0.06 | 0.18 | 0.08 | 10 | 1020.0 |
| 20260505023029 | 58 | 279 | 3.0 | 3.0 | 0.04 | 0.16 | 0.06 | 10 | 1020.1 |
| 20260505022034 | 34 | 258 | 2.0 | 2.0 | 0.04 | 0.16 | 0.06 | 10 | 1020.2 |
| 20260505021036 | 58 | 270 | 1.0 | 2.0 | 0.02 | 0.14 | 0.04 | 10 | 1020.0 |
| 20260505020028 | 38 | 246 | 1.0 | 3.0 | 0.00 | 0.12 | 0.02 | 10 | 1020.0 |
| 20260505015033 | 34 | 0.0 | 0.0 | 0.00 | 0.12 | 0.02 | 10 | 1019.8 | |
| 20260505014033 | 58 | 270 | 2.0 | 3.0 | 0.00 | 0.12 | 0.02 | 10 | 1019.9 |
| 20260505013032 | -1 | 270 | 2.0 | 2.0 | 0.00 | 0.12 | 0.02 | 10 | 1019.9 |
| 20260505012034 | 78 | 230 | 2.0 | 2.0 | 0.00 | 0.12 | 0.02 | 10 | 1019.9 |
| 20260505011029 | 31 | 232 | 1.0 | 2.0 | 0.00 | 0.12 | 0.02 | 10 | 1020.2 |
| 20260505005537 | 38 | 324 | 2.0 | 3.0 | 0.02 | 0.12 | 0.02 | 10 | 1020.4 |
| 20260505004547 | 28 | 218 | 2.0 | 2.0 | 0.02 | 0.12 | 0.02 | 10 | 1020.6 |
| 20260505003515 | -1 | 225 | 2.0 | 4.0 | 0.02 | 0.12 | 0.02 | 10 | 1020.9 |
| 20260505002525 | -1 | 0.0 | 0.0 | 0.02 | 0.12 | 0.02 | 10 | 1021.1 | |
| 20260505001549 | -1 | 257 | 1.0 | 3.0 | 0.02 | 0.12 | 0.02 | 10 | 1021.4 |
| 20260505000538 | -1 | 90 | 0.0 | 1.0 | 0.00 | 0.10 | 0.00 | 10 | 1021.5 |
| 20260504235544 | -1 | 225 | 3.0 | 3.0 | 0.00 | 0.10 | 0.00 | 10 | 1021.8 |
| 20260504234543 | -1 | 213 | 1.0 | 2.0 | 0.00 | 0.10 | 0.00 | 10 | 1021.9 |
| 20260504233622 | -1 | 230 | 2.0 | 5.0 | 0.00 | 0.10 | 0.00 | 10 | 1022.2 |
| 20260504232604 | -1 | 235 | 3.0 | 4.0 | 0.00 | 0.10 | 0.00 | 10 | 1022.2 |
| 20260504231603 | -1 | 262 | 3.0 | 4.0 | 0.00 | 0.10 | 0.00 | 10 | 1022.3 |
| 20260504230518 | -1 | 262 | 3.0 | 3.0 | 0.00 | 0.10 | 0.00 | 10 | 1022.3 |
| 20260504225519 | -1 | 211 | 3.0 | 3.0 | 0.00 | 0.10 | 0.00 | 10 | 1022.5 |
| 20260504224545 | -1 | 240 | 3.0 | 3.0 | 0.00 | 0.10 | 0.00 | 10 | 1022.6 |
| 20260504223543 | -1 | 204 | 4.0 | 6.0 | 0.00 | 0.10 | 0.00 | 10 | 1022.6 |
| 20260504222548 | -1 | 243 | 2.0 | 3.0 | 0.00 | 0.10 | 0.00 | 10 | 1022.7 |
| 20260504221537 | -1 | 217 | 4.0 | 5.0 | 0.00 | 0.10 | 0.00 | 10 | 1022.7 |
| 20260504220533 | -1 | 208 | 3.0 | 5.0 | 0.00 | 0.10 | 0.00 | 10 | 1022.7 |
| 20260504215552 | -1 | 204 | 4.0 | 6.0 | 0.00 | 0.10 | 0.10 | 10 | 1022.9 |
| 20260504214533 | -1 | 246 | 3.0 | 3.0 | 0.00 | 0.10 | 0.10 | 10 | 1023.0 |
| 20260504213556 | -1 | 176 | 4.0 | 6.0 | 0.00 | 0.10 | 0.10 | 10 | 1023.0 |
| 20260504212540 | -1 | 181 | 6.0 | 9.0 | 0.00 | 0.10 | 0.10 | 10 | 1023.2 |
| 20260504211549 | -1 | 193 | 5.0 | 6.0 | 0.00 | 0.10 | 0.10 | 10 | 1023.3 |
| 20260504210531 | 13 | 232 | 6.0 | 9.0 | 0.00 | 0.10 | 0.10 | 33 | 1023.5 |
| 20260504205515 | 50 | 18 | 2.0 | 2.0 | 0.02 | 0.10 | 0.10 | 87 | 1023.4 |
| 20260504204548 | 49 | 210 | 4.0 | 6.0 | 0.02 | 0.10 | 0.10 | 87 | 1023.5 |
| 20260504203548 | 49 | 215 | 5.0 | 6.0 | 0.02 | 0.10 | 0.10 | 87 | 1023.6 |
| 20260504202538 | 49 | 23 | 1.0 | 2.0 | 0.02 | 0.10 | 0.10 | 87 | 1023.6 |
| 20260504201524 | 50 | 229 | 2.0 | 6.0 | 0.04 | 0.10 | 0.10 | 87 | 1023.7 |
| 20260504200522 | 50 | 256 | 2.0 | 2.0 | 0.04 | 0.10 | 0.10 | 86 | 1023.6 |
| 20260504195543 | 50 | 191 | 5.0 | 7.0 | 0.02 | 0.08 | 0.08 | 86 | 1023.5 |
| 20260504194524 | 50 | 207 | 3.0 | 4.0 | 0.02 | 0.08 | 0.08 | 85 | 1023.5 |
| 20260504193544 | 50 | 213 | 3.0 | 4.0 | 0.02 | 0.08 | 0.08 | 85 | 1023.3 |
| 20260504192521 | 50 | 174 | 1.0 | 2.0 | 0.02 | 0.08 | 0.08 | 84 | 1023.3 |
| 20260504191549 | 51 | 270 | 0.0 | 2.0 | 0.00 | 0.06 | 0.06 | 83 | 1023.2 |
| 20260504190516 | 51 | 190 | 3.0 | 5.0 | 0.00 | 0.06 | 0.06 | 82 | 1023.1 |
| 20260504185523 | 51 | 0.0 | 0.0 | 0.00 | 0.06 | 0.06 | 82 | 1023.0 | |
| 20260504184524 | 52 | 219 | 3.0 | 4.0 | 0.02 | 0.06 | 0.06 | 83 | 1022.9 |
| 20260504183522 | 52 | 182 | 3.0 | 4.0 | 0.02 | 0.06 | 0.06 | 82 | 1023.0 |
| 20260504182523 | 52 | 202 | 5.0 | 5.0 | 0.02 | 0.06 | 0.06 | 82 | 1022.9 |
| 20260504181530 | 52 | 0 | 2.0 | 2.0 | 0.02 | 0.06 | 0.06 | 82 | 1022.8 |
| 20260504180527 | 52 | 23 | 1.0 | 2.0 | 0.04 | 0.06 | 0.06 | 82 | 1022.9 |
| 20260504175526 | 53 | 281 | 2.0 | 3.0 | 0.04 | 0.06 | 0.06 | 81 | 1023.1 |
| 20260504174527 | 53 | 4 | 2.0 | 3.0 | 0.02 | 0.04 | 0.04 | 81 | 1023.2 |
| 20260504173530 | 53 | 0 | 1.0 | 1.0 | 0.02 | 0.04 | 0.04 | 80 | 1023.1 |
| 20260504172556 | 54 | 276 | 3.0 | 4.0 | 0.02 | 0.04 | 0.04 | 79 | 1023.1 |
| 20260504171543 | 55 | 252 | 3.0 | 4.0 | 0.02 | 0.04 | 0.04 | 78 | 1023.2 |
| 20260504170515 | 56 | 294 | 2.0 | 3.0 | 0.00 | 0.02 | 0.02 | 77 | 1023.2 |
| 20260504150545 | 59 | 270 | 0.0 | 1.0 | 0.00 | 0.02 | 0.02 | 78 | 1022.9 |
| 20260504140528 | 61 | 225 | 1.0 | 2.0 | 0.00 | 0.02 | 0.02 | 75 | 1023.0 |
| 20260504130523 | 60 | 233 | 2.0 | 3.0 | 0.00 | 0.02 | 0.02 | 79 | 1023.7 |
| 20260504110538 | 59 | 158 | 0.0 | 2.0 | 0.02 | 0.02 | 0.02 | 77 | 1024.1 |
| 20260504100524 | 60 | 23 | 0.0 | 1.0 | 0.00 | 0.00 | 0.00 | 66 | 1024.1 |